Terug naar catalogus

CZ-6A DEB

ActiefPO
NORAD 61420·DEBRIS·🇨🇳 China

Gelanceerd Aug 6, 2024 vanaf Taiyuan Satellite Launch Center

Loading…

Volgende Passages (komende 24 uur)

TLE

VersSource: Space-Track

Epoch: Sep 14, 2026, 06:40 UTC

1 61420U 24140YM  26257.27781443  .00001436  00000-0  49562-3 0  9995
2 61420  88.9763 260.9899 0042992 301.2369  58.4620 14.34865612103525

Volg CZ-6A DEB in realtime met AllMySat

Download on the App Store